TimeCST,TemperatureF,Dew PointF,Humidity,Sea Level PressureIn,VisibilityMPH,Wind Direction,Wind SpeedMPH,Gust SpeedMPH,PrecipitationIn,Events,Conditions,WindDirDegrees,DateUTC
12:15 AM,28.4,24.8,86,30.33,9.0,Calm,Calm,-,N/A,,Clear,0,2013-03-07 06:15:00
12:35 AM,28.4,24.8,86,30.32,10.0,Calm,Calm,-,N/A,,Clear,0,2013-03-07 06:35:00
12:55 AM,28.4,24.8,86,30.32,10.0,Calm,Calm,-,N/A,,Clear,0,2013-03-07 06:55:00
1:15 AM,28.4,24.8,86,30.32,9.0,East,3.5,-,N/A,,Clear,90,2013-03-07 07:15:00
1:35 AM,30.2,24.8,80,30.32,9.0,ENE,3.5,-,N/A,,Clear,70,2013-03-07 07:35:00
1:55 AM,32.0,24.8,75,30.31,9.0,Calm,Calm,-,N/A,,Clear,0,2013-03-07 07:55:00
2:15 AM,32.0,24.8,75,30.31,10.0,NE,3.5,-,N/A,,Clear,50,2013-03-07 08:15:00
2:35 AM,32.0,26.6,80,30.32,10.0,Calm,Calm,-,N/A,,Clear,0,2013-03-07 08:35:00
2:55 AM,32.0,26.6,80,30.33,9.0,Calm,Calm,-,N/A,,Clear,0,2013-03-07 08:55:00
3:15 AM,30.2,26.6,86,30.32,9.0,Calm,Calm,-,N/A,,Clear,0,2013-03-07 09:15:00
3:35 AM,32.0,26.6,80,30.32,9.0,Calm,Calm,-,N/A,,Clear,0,2013-03-07 09:35:00
3:55 AM,30.2,26.6,86,30.32,9.0,Calm,Calm,-,N/A,,Clear,0,2013-03-07 09:55:00
4:15 AM,28.4,24.8,86,30.33,10.0,Calm,Calm,-,N/A,,Clear,0,2013-03-07 10:15:00
4:35 AM,28.4,26.6,93,30.33,8.0,NE,3.5,-,N/A,,Clear,50,2013-03-07 10:35:00
4:55 AM,30.2,26.6,86,30.34,9.0,NE,4.6,-,N/A,,Clear,50,2013-03-07 10:55:00
5:15 AM,30.2,24.8,80,30.34,9.0,NE,5.8,-,N/A,,Clear,40,2013-03-07 11:15:00
5:55 AM,30.2,26.6,86,30.36,9.0,ENE,4.6,-,N/A,,Clear,70,2013-03-07 11:55:00
6:15 AM,30.2,26.6,86,30.37,8.0,NE,4.6,-,N/A,,Clear,50,2013-03-07 12:15:00
6:35 AM,30.2,24.8,80,30.37,7.0,East,3.5,-,N/A,,Clear,80,2013-03-07 12:35:00
6:55 AM,30.2,24.8,80,30.38,8.0,East,3.5,-,N/A,,Clear,80,2013-03-07 12:55:00
7:15 AM,32.0,26.6,80,30.39,8.0,ENE,5.8,-,N/A,,Clear,70,2013-03-07 13:15:00
7:35 AM,32.0,26.6,80,30.39,8.0,East,5.8,-,N/A,,Clear,90,2013-03-07 13:35:00
7:55 AM,33.8,26.6,75,30.39,8.0,East,6.9,-,N/A,,Clear,90,2013-03-07 13:55:00
8:35 AM,37.4,26.6,65,30.40,8.0,ESE,4.6,-,N/A,,Clear,110,2013-03-07 14:35:00
8:55 AM,37.4,26.6,65,30.40,9.0,East,5.8,-,N/A,,Clear,80,2013-03-07 14:55:00
9:15 AM,39.2,26.6,61,30.40,8.0,ENE,4.6,-,N/A,,Clear,70,2013-03-07 15:15:00
9:35 AM,39.2,26.6,61,30.40,9.0,Calm,Calm,-,N/A,,Clear,0,2013-03-07 15:35:00
9:55 AM,41.0,26.6,57,30.39,8.0,ESE,3.5,-,N/A,,Clear,120,2013-03-07 15:55:00
10:15 AM,41.0,26.6,57,30.39,8.0,NE,4.6,-,N/A,,Clear,40,2013-03-07 16:15:00
10:35 AM,42.8,26.6,53,30.39,8.0,ENE,4.6,-,N/A,,Clear,70,2013-03-07 16:35:00
10:55 AM,44.6,26.6,49,30.39,9.0,North,8.1,-,N/A,,Clear,360,2013-03-07 16:55:00
11:15 AM,44.6,26.6,49,30.39,9.0,NNE,6.9,-,N/A,,Clear,20,2013-03-07 17:15:00
11:55 AM,46.4,26.6,46,30.37,9.0,North,3.5,-,N/A,,Partly Cloudy,350,2013-03-07 17:55:00
12:15 PM,46.4,26.6,46,30.36,8.0,NNE,5.8,-,N/A,,Clear,30,2013-03-07 18:15:00
12:35 PM,48.2,26.6,43,30.35,8.0,ESE,3.5,-,N/A,,Clear,120,2013-03-07 18:35:00
12:55 PM,48.2,28.4,46,30.34,9.0,ENE,8.1,-,N/A,,Clear,70,2013-03-07 18:55:00
1:15 PM,50.0,26.6,40,30.33,9.0,North,8.1,-,N/A,,Clear,10,2013-03-07 19:15:00
1:35 PM,50.0,26.6,40,30.33,10.0,NE,4.6,-,N/A,,Clear,50,2013-03-07 19:35:00
1:55 PM,50.0,26.6,40,30.32,9.0,NNE,5.8,-,N/A,,Clear,20,2013-03-07 19:55:00
2:15 PM,51.8,26.6,38,30.32,9.0,NNW,6.9,-,N/A,,Clear,340,2013-03-07 20:15:00
2:35 PM,51.8,26.6,38,30.31,8.0,ENE,4.6,-,N/A,,Clear,60,2013-03-07 20:35:00
2:55 PM,51.8,26.6,38,30.31,8.0,Calm,Calm,-,N/A,,Clear,0,2013-03-07 20:55:00
3:15 PM,53.6,26.6,35,30.30,9.0,Calm,Calm,-,N/A,,Clear,0,2013-03-07 21:15:00
3:55 PM,53.6,26.6,35,30.30,10.0,NW,5.8,-,N/A,,Clear,320,2013-03-07 21:55:00
4:15 PM,53.6,26.6,35,30.30,9.0,Calm,Calm,-,N/A,,Clear,0,2013-03-07 22:15:00
4:35 PM,53.6,26.6,35,30.30,9.0,NNE,4.6,-,N/A,,Clear,20,2013-03-07 22:35:00
4:55 PM,53.6,26.6,35,30.30,9.0,Calm,Calm,-,N/A,,Clear,0,2013-03-07 22:55:00
5:15 PM,51.8,26.6,38,30.30,9.0,Calm,Calm,-,N/A,,Clear,0,2013-03-07 23:15:00
5:35 PM,50.0,26.6,40,30.29,9.0,NNE,3.5,-,N/A,,Clear,30,2013-03-07 23:35:00
7:35 PM,39.2,32.0,75,30.29,9.0,Calm,Calm,-,N/A,,Clear,0,2013-03-08 01:35:00
7:55 PM,37.4,32.0,81,30.29,10.0,Calm,Calm,-,N/A,,Clear,0,2013-03-08 01:55:00
8:15 PM,37.4,32.0,81,30.29,10.0,Calm,Calm,-,N/A,,Clear,0,2013-03-08 02:15:00
8:35 PM,35.6,32.0,87,30.29,10.0,Calm,Calm,-,N/A,,Clear,0,2013-03-08 02:35:00
8:55 PM,35.6,32.0,87,30.30,10.0,Calm,Calm,-,N/A,,Clear,0,2013-03-08 02:55:00
9:15 PM,35.6,32.0,87,30.30,10.0,Calm,Calm,-,N/A,,Clear,0,2013-03-08 03:15:00
9:35 PM,35.6,30.2,81,30.30,9.0,Calm,Calm,-,N/A,,Clear,0,2013-03-08 03:35:00
9:55 PM,35.6,32.0,87,30.30,10.0,Calm,Calm,-,N/A,,Clear,0,2013-03-08 03:55:00
10:15 PM,35.6,32.0,87,30.31,9.0,Calm,Calm,-,N/A,,Clear,0,2013-03-08 04:15:00
10:35 PM,33.8,30.2,87,30.30,9.0,Calm,Calm,-,N/A,,Clear,0,2013-03-08 04:35:00
10:55 PM,33.8,30.2,87,30.31,10.0,Calm,Calm,-,N/A,,Clear,0,2013-03-08 04:55:00
11:15 PM,33.8,32.0,93,30.31,8.0,Calm,Calm,-,N/A,,Clear,0,2013-03-08 05:15:00
11:55 PM,32.0,28.4,87,30.31,10.0,Calm,Calm,-,N/A,,Clear,0,2013-03-08 05:55:00